Weather in Baoding

China     26°43′54″N   100°13′51″E
temp.,
°C
wind,
m/s
gust,
m/s
humid.,
%
clouds,
%
prec.,
mm/h
press.,
hPa
HPBL,
m
21 january, thu
thu2123:000w229437 0.1 101336
02:00−1wnw229532 0.1 101339
05:00−2w229755 0.0 101348
08:00−1w229555 0.0 101487
11:00+6wsw236562 0.0 1014739
14:00+7ssw235777 0.5 10111210
17:00+7s467090 0.8 1009836
20:00+3wsw359094 1.6 1013161
22 january, fri
fri2223:00+1wsw239696 0.2 1016180
02:00−1w229675 0.2 101746
05:00−3wnw229610 0.0 101744
08:00−3wnw229510 0.0 102047
11:00+6nw11613 0.0 1020575
14:00+11s12377 0.0 10151574
17:00+10s243757 0.0 10121653
20:00+2s127164 0.0 101722
23 january, sat
sat2323:000w12790 0.0 102022
02:00−1wnw22870 0.0 102022
05:00−2w22880 0.0 101925
08:00−3wnw22900 0.0 102033
11:00+8w12470 0.0 1017575
14:00+13wsw36280 0.0 10121638
17:00+13sw57300 0.0 10091600
20:00+5sw36560 0.0 1014117
24 january, sun
sun2423:00+1w33700 0.0 101659
02:00−1w33760 0.0 101658
05:00−2wnw33830 0.0 101664
08:00−3wnw33880 0.0 101763
11:00+7w24470 0.0 1015593
14:00+14wsw48310 0.0 10101630
17:00+15wsw615270 0.0 10072352
20:00+6sw47530 0.0 1013147
25 january, mon
mon2523:00+2w33750 0.0 101560
02:000wnw33830 0.0 101663
05:00−2wnw33890 0.0 101665
08:00−3wnw33920 0.0 101865
11:00+7wnw23490 0.0 1016545
14:00+13w37280 0.0 10111795
17:00+13sw511260 0.0 10092301
20:00+5sw37610 0.0 1014157